Regional Weather Roundup
Issued by NWS

Home | Current Version | Previous Version | Text Only | Print | Product List | Glossary Off
Versions: 1 2 3 4 5 6 7 8 9 10 11 12 13 14 15 16 17 18 19 20 21 22 23 24 25 26 27 28 29 30 31 32 33 34 35 36 37 38 39 40 41 42 43 44 45 46 47 48 49 50

000
ASUS43 KLMK 260502
RWRKY
KENTUCKY REGIONAL WEATHER ROUNDUP
NATIONAL WEATHER SERVICE LOUISVILLE KY
100 AM EDT THU APR 26 2018

NOTE "FAIR" INDICATES FEW OR NO CLOUDS BELOW 12,000 FEET
WITH NO SIGNIFICANT WEATHER AND/OR OBSTRUCTIONS TO VISIBILITY.

KYZ001>023-026-027-061>063-070>075-260600-
WESTERN AND SOUTH CENTRAL KENTUCKY

CITY           SKY/WX    TMP DP  RH WIND       PRES   REMARKS
PADUCAH        CLOUDY    57  55  93 CALM      29.92F
HENDERSON      FAIR      60  53  77 CALM      29.92F
OWENSBORO      FAIR      61  48  62 NE6       29.92F
HOPKINSVILLE   CLOUDY    59  52  78 W6        29.91F
BOWLING GREEN  FAIR      59  53  80 CALM      29.91F
GLASGOW        NOT AVBL
$$

KYZ024-025-028>034-038-045-046-053-260600-
NORTH CENTRAL KENTUCKY

CITY           SKY/WX    TMP DP  RH WIND       PRES   REMARKS
LOUISVILLE/SDF CLOUDY    60  46  59 N3        29.91F
LOUISVILLE/LOU FAIR      56  50  80 NW3       29.92F
FORT KNOX      FAIR      56  46  69 CALM      29.92F
$$

KYZ035>037-039>044-047>052-055>060-089>105-260600-
NORTHEAST KENTUCKY

CITY           SKY/WX    TMP DP  RH WIND       PRES   REMARKS
LEXINGTON      FAIR      56  44  64 N3        29.92F
COVINGTON      CLOUDY    52  35  52 N12       29.93S
FRANKFORT      FAIR      53  45  74 N3        29.91F
$$

KYZ054-064>069-076>088-106>120-260600-
SOUTHEAST KENTUCKY

CITY           SKY/WX    TMP DP  RH WIND       PRES   REMARKS
JACKSON        FAIR      51  49  92 CALM      29.92S
LONDON         FOG       49  49 100 CALM      29.93S VSB 1/4
SOMERSET       NOT AVBL
MIDDLESBORO    FAIR      48  48 100 CALM      29.95R FOG
MONTICELLO     NOT AVBL
$$





USA.gov is the U.S. government's official web portal to all federal, state and local government web resources and services.